sat.trackr.live / text

‹ back to catalog

AEROCUBE 6A

NORAD 40045 · 2014-033AM

PAYLOAD ACTIVE UNKNOWN

§ Identity

Operator
Country
US
Launch date
2014-06-19
Launch site
DLS
Launch vehicle
Mass (kg)
RCS (m²)
0.02

Purposes: tech_demo

External: N2YO · Heavens-Above · Gunter

§ Orbital elements

Epoch: 2026-09-09T23:05:53.150208Z

Period
96.07 min
Inclination
97.7332°
Eccentricity
0.0039830
Mean motion
14.98883311 rev/d
Perigee alt
542.7 km
Apogee alt
598.0 km
Semi-major
6,948.5 km
B*
3.7910e-4
RAAN
59.0994°
Arg perigee
90.1031°
Mean anomaly
270.4756°
Rev number
65,931

§ Raw data

AEROCUBE 6A1 40045U 14033AM  26252.96242072  .00004595  00000+0  37910-3 0  99982 40045  97.7332  59.0994 0039830  90.1031 270.4756 14.98883311659310

JSON: /api/v1/satellites/40045 · /tle

For live sub-satellite position, see the globe view (requires WebGL).

§ Visibility from observer

Set your observer location to see the next 7 days of passes ≥ 10°. The values pass through the URL so the page stays shareable.

No JS? Fill the form by hand. The geolocation button needs JavaScript.